This is the latest recevied weather packets stored in our database for station/object K4PAD. If no packets are shown the sender has not sent any weather packets the latest 10 day(s).
| Time | Temp. | Humidity | Pressure | Rain* | Wind** | Luminosity | Snow |
|---|---|---|---|---|---|---|---|
| 1788569156 | 25.56° C | 94% | 1015.9 hPa | 0 mm | - | 0 W/m² | - |
| 1788568855 | 25.56° C | 94% | 1015.8 hPa | 0 mm | - | 0 W/m² | - |
| 1788568547 | 25.56° C | 94% | 1016.2 hPa | 0 mm | - | 0 W/m² | - |
| 1788568243 | 25.56° C | 94% | 1016.1 hPa | 0 mm | - | 0 W/m² | - |
| 1788567938 | 25.56° C | 94% | 1016.1 hPa | 0 mm | - | 0 W/m² | - |
| 1788567633 | 25.56° C | 94% | 1015.7 hPa | 0 mm | - | 0 W/m² | - |
| 1788567327 | 25.56° C | 94% | 1015.8 hPa | 0 mm | - | 0 W/m² | - |
| 1788567026 | 25.56° C | 94% | 1016 hPa | 0 mm | - | 0 W/m² | - |
| 1788566722 | 25.56° C | 94% | 1015.9 hPa | 0 mm | - | 0 W/m² | - |
| 1788566418 | 25.56° C | 94% | 1015.7 hPa | 0 mm | - | 0 W/m² | - |
| 1788566113 | 26.11° C | 94% | 1015.7 hPa | 0 mm | - | 0 W/m² | - |
| 1788565812 | 26.11° C | 94% | 1015.7 hPa | 0 mm | - | 1 W/m² | - |
| 1788565507 | 26.11° C | 94% | 1015.8 hPa | 0 mm | - | 1 W/m² | - |
| 1788565203 | 26.11° C | 94% | 1015.5 hPa | 0 mm | - | 3 W/m² | - |
| 1788564898 | 26.67° C | 94% | 1016 hPa | 0 mm | - | 5 W/m² | - |
| 1788564594 | 26.67° C | 94% | 1015.9 hPa | 0 mm | - | 5 W/m² | - |
| 1788564290 | 26.67° C | 94% | 1016.1 hPa | 0 mm | - | 8 W/m² | - |
| 1788563987 | 26.67° C | 94% | 1016 hPa | 0 mm | - | 15 W/m² | - |
| 1788563682 | 26.67° C | 94% | 1015.9 hPa | 0 mm | - | 17 W/m² | - |
| 1788563377 | 26.67° C | 93% | 1016 hPa | 0 mm | - | 19 W/m² | - |
| 1788563076 | 26.67° C | 93% | 1016.2 hPa | 0 mm | - | 21 W/m² | - |
| 1788562771 | 26.67° C | 93% | 1016 hPa | 0 mm | - | 24 W/m² | - |
| 1788562469 | 26.67° C | 93% | 1015.8 hPa | 0 mm | - | 28 W/m² | - |
| 1788562163 | 26.67° C | 92% | 1015.7 hPa | 0 mm | - | 31 W/m² | - |
| 1788561860 | 26.67° C | 92% | 1015.9 hPa | 0 mm | - | 35 W/m² | - |
* Rain latest hour (hover to see other rain measurements)
** Current wind speed in m/s (hover to see current wind gust speed)